Location: Laverne
(36.7100°N, 99.8930°W)
Time: 10:52:56
(UTC-06:00)

Cosmos 2219 - Pass Details

Date: 19 October 2017
Orbit: 834 x 859 km, 71.1° (Epoch: 23 November)

Event Time Altitude Azimuth Distance (km) Brightness Sun altitude
Rises 06:30:07 0° 338° (NNW) 3,415 6.1 -16.9°
Reaches altitude 10° 06:32:35 10° 339° (NNW) 2,473 5.4 -16.4°
Maximum altitude 06:38:16 87° 67° (ENE) 847 3.2 -15.3°
Drops below altitude 10° 06:43:53 10° 159° (SSE) 2,442 5.9 -14.2°
Sets 06:46:18 0° 159° (SSE) 3,370 6.7 -13.7°
